Location: Taupo
(38.6830°S, 176.0830°E)
Time: 02:23:35
(UTC+13:00)

Cosmos 1271 Rocket - Pass Details

Date: 24 January 2019
Orbit: 498 x 547 km, 81.2° (Epoch: 22 February)

Event Time Altitude Azimuth Distance (km) Brightness Sun altitude
Rises 20:59:01 0° 186° (S) 2,738 6.9 -4.6°
Reaches altitude 10° 21:01:13 10° 182° (S) 1,842 6.0 -5.0°
Maximum altitude 21:05:15 63° 100° (E) 621 2.9 -5.6°
Drops below altitude 10° 21:09:15 10° 18° (NNE) 1,825 5.0 -6.3°
Sets 21:11:25 0° 15° (NNE) 2,710 5.9 -6.7°
Enters shadow 21:11:30 - 15° (NNE) 2,743 5.9 -6.7°
